Regional Weather Roundup
Issued by NWS Charleston, WV

Home | Current Version | Previous Version | Graphics & Text | Print | Product List | Glossary On
Versions: 1 2 3 4 5 6 7 8 9 10 11 12 13 14 15 16 17 18 19 20 21 22 23 24 25 26 27 28 29 30 31 32 33 34 35 36 37 38 39 40 41 42 43 44 45 46 47 48 49 50
000
ASUS41 KRLX 210010
RWRRLX
West Virginia Regional Weather Roundup
National Weather Service Charleston WV
800 PM EDT FRI APR 20 2018

Note: "fair" indicates few or no clouds below 12,000 feet with no
significant weather and/or obstructions to visibility.

WVZ003-210100-
Northern Panhandle of West Virginia

CITY           SKY/WX    TMP DP  RH WIND       PRES   REMARKS
WHEELING       FAIR      49  16  26 NW10      30.39R
$$

WVZ009-210100-
Northwest West Virginia

CITY           SKY/WX    TMP DP  RH WIND       PRES   REMARKS
PARKERSBURG    FAIR      54  19  25 N5        30.42R
$$

WVZ006-210100-
Western West Virginia

CITY           SKY/WX    TMP DP  RH WIND       PRES   REMARKS
HUNTINGTON     FAIR      59  23  25 NE6       30.38S
$$

WVZ015-210100-
West Central West Virginia

CITY           SKY/WX    TMP DP  RH WIND       PRES   REMARKS
CHARLESTON     FAIR      55  19  24 NW7       30.38R
$$

WVZ022-031-210100-
North Central West Virginia

CITY           SKY/WX    TMP DP  RH WIND       PRES   REMARKS
CLARKSBURG     FAIR      52  22  30 N7        30.37R
MORGANTOWN     FAIR      51  22  31 NW5       30.38S
$$

WVZ025-035-042-045-210100-
Southern West Virginia

CITY           SKY/WX    TMP DP  RH WIND       PRES   REMARKS
BECKLEY        FAIR      49  17  28 N8        30.36R
LOGAN          FAIR      52  16  24 CALM      30.37R
BLUEFIELD      FAIR      50  13  22 N5        30.35R
LEWISBURG      FAIR      50  16  25 N6        30.35R
$$

WVZ047-210100-
Northern Mountains of West Virginia

CITY           SKY/WX    TMP DP  RH WIND       PRES   REMARKS
ELKINS         FAIR      47  19  33 VRB5      30.36R
$$

WVZ052-210100-
Eastern Panhandle of West Virginia

CITY           SKY/WX    TMP DP  RH WIND       PRES   REMARKS
MARTINSBURG    FAIR      53  24  32 NW9       30.31R
PETERSBURG     FAIR      52  22  30 N8        30.34R
$$



USA.gov is the U.S. government's official web portal to all federal, state and local government web resources and services.